Location: Newark
(59.0255°N, 3.2035°E)
Time: 05:21:39
(UTC+00:00)

ISS - Visible Passes

Search period start: 06 December 2019 00:00
Search period end: 16 December 2019 00:00
Orbit: 411 x 421 km, 51.6° (Epoch: 06 December)

Date Brightness Start Highest point End Pass type
(mag) Time Alt. Az. Time Alt. Az. Time Alt. Az.
06 Dec -1.6 15:49:00 10° SW 15:51:44 23° S 15:54:29 10° SE visible
06 Dec -1.1 17:25:31 10° WSW 17:27:46 17° SSW 17:30:01 10° SSE visible
07 Dec -1.2 16:36:59 10° WSW 16:39:28 19° SSW 16:41:58 10° SSE visible
08 Dec -1.3 15:48:31 10° WSW 15:51:10 22° S 15:53:48 10° SE visible
08 Dec -0.7 17:25:53 10° SW 17:27:02 11° SSW 17:28:13 10° S visible
09 Dec -0.8 16:36:53 10° WSW 16:38:46 14° SSW 16:40:40 10° S visible
10 Dec -0.8 15:48:12 10° WSW 15:50:29 17° SSW 15:52:46 10° SSE visible
12 Dec -0.3 15:48:23 10° SW 15:49:41 12° SSW 15:50:59 10° S visible
